This is the latest recevied weather packets stored in our database for station/object KN4AN. If no packets are shown the sender has not sent any weather packets the latest 10 day(s).
| Time | Temp. | Humidity | Pressure | Rain* | Wind** | Luminosity | Snow |
|---|---|---|---|---|---|---|---|
| 1787946067 | 31.67° C | 48% | 1017.1 hPa | 0 mm | - | 304 W/m² | - |
| 1787945762 | 31.67° C | 45% | 1017.1 hPa | 0 mm | - | 531 W/m² | - |
| 1787945457 | 31.67° C | 53% | 1017.1 hPa | 0 mm | - | 647 W/m² | - |
| 1787945153 | 31.11° C | 52% | 1017.2 hPa | 0 mm | - | 431 W/m² | - |
| 1787944851 | 30° C | 52% | 1017.3 hPa | 0 mm | - | 427 W/m² | - |
| 1787944545 | 30° C | 54% | 1017.2 hPa | 0 mm | - | 285 W/m² | - |
| 1787944242 | 30° C | 51% | 1017.5 hPa | 0 mm | - | 263 W/m² | - |
| 1787943940 | 30.56° C | 50% | 1017.5 hPa | 0 mm | - | 268 W/m² | - |
| 1787943637 | 31.11° C | 52% | 1017.6 hPa | 0 mm | - | 272 W/m² | - |
| 1787943336 | 31.11° C | 53% | 1017.6 hPa | 0 mm | - | 321 W/m² | - |
| 1787943032 | 31.11° C | 51% | 1017.4 hPa | 0 mm | - | 320 W/m² | - |
| 1787942732 | 31.67° C | 51% | 1017.6 hPa | 0 mm | - | 316 W/m² | - |
| 1787942434 | 31.67° C | 52% | 1017.6 hPa | 0 mm | - | 430 W/m² | - |
| 1787942126 | 31.11° C | 50% | 1017.6 hPa | 0 mm | - | 518 W/m² | - |
| 1787941822 | 31.67° C | 47% | 1017.5 hPa | 0 mm | - | 484 W/m² | - |
| 1787941521 | 31.11° C | 52% | 1017.7 hPa | 0 mm | - | 704 W/m² | - |
| 1787941216 | 31.11° C | 50% | 1017.7 hPa | 0 mm | - | 559 W/m² | - |
| 1787940914 | 31.67° C | 51% | 1017.8 hPa | 0 mm | - | 210 W/m² | - |
| 1787940609 | 31.67° C | 50% | 1017.8 hPa | 0 mm | - | 681 W/m² | - |
| 1787940309 | 31.67° C | 50% | 1017.8 hPa | 0 mm | - | 628 W/m² | - |
| 1787940008 | 31.67° C | 50% | 1018 hPa | 0 mm | - | 702 W/m² | - |
| 1787939708 | 31.67° C | 50% | 1017.9 hPa | 0 mm | - | 690 W/m² | - |
| 1787939408 | 31.67° C | 50% | 1017.9 hPa | 0 mm | - | 634 W/m² | - |
| 1787939103 | 31.67° C | 50% | 1017.9 hPa | 0 mm | - | 714 W/m² | - |
| 1787938802 | 31.67° C | 51% | 1018.1 hPa | 0 mm | - | 723 W/m² | - |
* Rain latest hour (hover to see other rain measurements)
** Current wind speed in m/s (hover to see current wind gust speed)